Regional Weather Roundup
Issued by NWS Goodland, KS

Home | Current Version | Previous Version | Text Only | Print | Product List | Glossary On
Versions: 1 2 3 4 5 6 7 8 9 10 11 12 13 14 15 16 17 18 19 20 21 22 23 24 25 26 27 28 29 30 31 32 33 34 35 36 37 38 39 40 41 42 43 44 45 46 47 48 49 50
000
ASUS43 KGLD 271108
RWRGLD

GOODLAND FORECAST AREA HOURLY WEATHER ROUNDUP
NATIONAL WEATHER SERVICE GOODLAND KS
400 AM MST SAT DEC 27 2014

...OFFICIAL OBSERVATIONS...

CITY           SKY/WX    TMP DP  RH WIND       PRES   REMARKS
GOODLAND KS    CLEAR      5   2  87 W10       30.15R WCI -10
HILL CITY KS   CLEAR      8   5  87 W8        30.24R
IMPERIAL NEB   PTCLDY     8   3  80 NW10      30.16R WCI  -6
MCCOOK NEB     CLOUDY    11   7  84 W9        30.18F
AKRON CO       CLOUDY     5   4  95 W16       30.10R FOG     WCI -14
BURLINGTON CO  PTCLDY     2  -2  83 W7        30.13R
LIMON CO       PTCLDY     2  -2  83 W8        30.08R
$$

...UNOFFICIAL OBSERVATIONS...

CITY           SKY/WX    TMP DP  RH WIND       PRES   REMARKS
COLBY KS       CLEAR      7   5  92 W6        30.18S
NORTON KS      CLEAR      9   3  78 W9        30.19R
SHARON SPRINGS   N/A      1  -2  87 W6          N/A
TRIBUNE KS     CLEAR      5   3  92 SW10      30.21R WCI -10
KIT CARSON CO    N/A      4   0  82 MISG        N/A
$$



USA.gov is the U.S. government's official web portal to all federal, state and local government web resources and services.